Regional Weather Roundup
Issued by NWS

Home | Current Version | Previous Version | Graphics & Text | Print | Product List | Glossary On
Versions: 1 2 3 4 5 6 7 8 9 10 11 12 13 14 15 16 17 18 19 20 21 22 23 24 25 26 27 28 29 30 31 32 33 34 35 36 37 38 39 40 41 42 43 44 45 46 47 48 49 50
000
ASUS43 KDTX 190901
RWRMI
MICHIGAN HOURLY REGIONAL WEATHER ROUNDUP
NATIONAL WEATHER SERVICE DETROIT/PONTIAC MI
400 AM EST FRI DEC 19 2014

NOTE: "FAIR" INDICATES FEW OR NO CLOUDS BELOW 12,000 FEET WITH NO
SIGNIFICANT WEATHER AND/OR OBSTRUCTION TO VISIBILITY.

MIZ047>049-052>055-059>063-066>070-074>076-081>083-191000-
SOUTHEAST LOWER MICHIGAN

CITY           SKY/WX    TMP DP  RH WIND       PRES   REMARKS
ADRIAN         CLOUDY    29  25  85 NW6       30.22R WCI  23
ALMA           CLOUDY    25  21  84 NE3       30.23S
ANN ARBOR      CLOUDY    28  26  92 N6        30.20R WCI  22
BAD AXE        CLOUDY    24  21  87 NW5       30.21R WCI  18
CARO           CLOUDY    26  21  81 NW6       30.22R WCI  20
DETROIT CITY   CLOUDY    29  20  69 N8        30.22R WCI  21
DETROIT        CLOUDY    28  23  81 N7        30.22S WCI  21
GROSSE ILE     CLOUDY    28  25  86 N6        30.20S WCI  22
HILLSDALE      CLOUDY    27  27  98 W8        30.19S FOG     WCI  19
HOWELL         CLOUDY    25  24  96 CALM      30.20S

CITY           SKY/WX    TMP DP  RH WIND       PRES   REMARKS
JACKSON        CLOUDY    28  26  92 W5        30.19S FOG     WCI  23
LAMBERTVILLE   CLOUDY    32  28  86 W5        30.22R WCI  27
LANSING        CLOUDY    27  23  85 N6        30.22S WCI  20
LAPEER         CLOUDY    25  22  87 CALM      30.21R
MASON          CLOUDY    27  25  93 NE3       30.21S
MONROE         CLOUDY    30  28  93 N7        30.19S WCI  23
MT. CLEMENS    CLOUDY    27  24  89 NW7       30.19R WCI  20
PONTIAC        CLOUDY    24  21  88 N7        30.19R WCI  16
PORT HOPE        N/A     29  22  75 NW8       30.18S WCI  21
PORT HURON     CLOUDY    27  23  86 NW5       30.19S WCI  21
TRI CITIES     CLOUDY    26  19  74 W5        30.24S WCI  20
TROY           CLOUDY    29  21  73 NW5       30.23R WCI  24
SAGINAW HB     CLOUDY    27  21  80 CALM      30.23S
$$
MIZ043>046-050>051-056>058-064>065-071>073-077>080-191000-
SOUTHWEST LOWER MICHIGAN

CITY           SKY/WX    TMP DP  RH WIND       PRES   REMARKS
BATTLE CREEK   CLOUDY    29  26  89 W5        30.21R FOG     WCI  24
BENTON HARBOR  CLOUDY    31  24  75 CALM      30.24R
BIG RAPIDS     CLOUDY    24  21  89 CALM      30.21S
COLDWATER      CLOUDY    27  25  91 W8        30.20F WCI  19
FREMONT        FAIR      18  17  94 N3        30.23S
HOLLAND        CLEAR     26  19  74 N3        30.24S
GRAND RAPIDS   CLOUDY    28  21  75 N6        30.22S WCI  22
IONIA          CLOUDY    28  22  80 N6        30.21S WCI  21
KALAMAZOO      CLOUDY    29  25  85 W7        30.22R WCI  22
LUDINGTON      CLEAR     14  11  87 CALM      30.27R
MARSHALL       CLOUDY    27  26  94 SW3       30.20S FOG
MOUNT PLEASANT CLOUDY    24  19  83 CALM      30.23S
MUSKEGON       CLEAR     21  18  88 N3        30.25S
SOUTH HAVEN    PTCLDY    24  22  91 CALM      30.24R
$$
MIZ016>042-191000-
NORTHERN LOWER MICHIGAN

CITY           SKY/WX    TMP DP  RH WIND       PRES   REMARKS
ALPENA         CLEAR     13  11  92 CALM      30.23S
BEAVER ISLAND  CLEAR     11  10  92 CALM      30.25S
BELLAIRE       PTCLDY     9   6  89 CALM      30.27R
CADILLAC       LGT SNOW  17  14  90 CALM      30.19S VSB 3/4
CHARLEVOIX     CLEAR     11  10  94 SE3       30.27S
FRANKFORT      PTCLDY    10   8  94 CALM      30.25S
GAYLORD        PTCLDY     2  -1  88 CALM      30.19S
GRAYLING       PTCLDY     2  -1  85 CALM      30.21S
HARBOR SPRINGS PTCLDY     8   5  88 CALM      30.24S
HOUGHTON LAKE  PTCLDY    11   7  84 CALM      30.21R
MANISTEE       PTCLDY    12   9  85 CALM      30.26R
OSCODA         CLEAR     14  12  92 NW5       30.22R WCI   6
PELLSTON       PTCLDY     0  -4  83 CALM      30.25S
ROGERS CITY    CLOUDY    19  17  93 W5        30.24S WCI  12
TRAVERSE CITY  CLEAR     13   9  84 CALM      30.24S
$$
MIZ007>008-015-191000-
EASTERN UPPER MICHIGAN

CITY           SKY/WX    TMP DP  RH WIND       PRES   REMARKS
KINROSS        PTCLDY    12  10  92 N5        30.24S WCI   4
MACKINAC ISLAN PTCLDY    19  13  79 NE6       30.23F WCI  10
NEWBERRY       PTCLDY    19  17  91 N3        30.23F
S. S. MARIE    PTCLDY    11   5  77 CALM      30.22F
MUNISING         N/A     21  17  84 S7        30.25S WCI  12
$$
MIZ004>006-011>014-085-191000-
CENTRAL UPPER MICHIGAN

CITY           SKY/WX    TMP DP  RH WIND       PRES   REMARKS
MANISTIQUE     PTCLDY    11  10  95 CALM      30.25S
ESCANABA       PTCLDY    10   9  92 NW3       30.26R
MENOMINEE      PTCLDY    16  12  86 CALM      30.27S
SAWYER-GWINN   CLOUDY    23  19  87 NW3       30.23S
$$
MIZ001>003-009>011-084-191000-
WESTERN UPPER MICHIGAN

CITY           SKY/WX    TMP DP  RH WIND       PRES   REMARKS
IRON MOUNTAIN  PTCLDY     2  -1  88 CALM      30.25R
HOUGHTON       CLOUDY    16  13  88 CALM      30.25S
COPPER HARBOR    N/A     25  19  78 W6        30.27S WCI  18
IRONWOOD       PTCLDY     3   1  92 E3        30.23F
$$

ABBREVIATIONS USED IN REMARKS
   TC - TEMPERATURE IN CELSIUS
  WCI - WIND CHILL INDEX
   HX - HEAT INDEX
  VSB - VISIBILITY



USA.gov is the U.S. government's official web portal to all federal, state and local government web resources and services.